Burnet, TX

8:30 PM CDT on September 25, 2017 (GMT -0500)
Burnet Municipal-Craddock

Weather History for KBMQ - October, 2014

Change the Weather History Date:

Monday, October 20, 2014

  Actual Average Record
Temperature  
Mean Temperature 72 °F -  
Max Temperature 82 °F 74 °F 90 °F (2005)
Min Temperature 62 °F 55 °F 41 °F (1999)
Cooling Degree Days 6    
Growing Degree Days 22 (Base 50)    
Moisture  
Dew Point 59 °F    
Average Humidity 78    
Maximum Humidity 93    
Minimum Humidity 45    
Precipitation  
Precipitation 0.00 in - - ()
Sea Level Pressure  
Sea Level Pressure 30.05 in    
Wind  
Wind Speed 3 mph (East)    
Max Wind Speed 8 mph    
Max Gust Speed -    
Visibility 8 miles    
Events      
Averages and records for this station are not official NWS values.
T = Trace of Precipitation, MM = Missing Value Source: NWS Daily Summary

Daily Weather History Graph

Daily Weather History Graph

Search for Another Location

Airport or City:

Trip Planner

Search our weather history database for the weather conditions in past years. The results will help you decide how hot, cold, wet, or windy it might be!

Date:

Astronomy

Oct. 20, 2014 Rise Set
Actual Time 7:38 AM CDT 6:56 PM CDT
Civil Twilight 7:14 AM CDT 7:20 PM CDT
Nautical Twilight 6:46 AM CDT 7:48 PM CDT
Astronomical Twilight 6:18 AM CDT 8:16 PM CDT
Moon 4:40 AM CDT (10/20) 5:08 PM CDT (10/20)
Length of Visible Light 12h 06m
Length of Day
11h 17m
Waning Crescent, 10% of the Moon is Illuminated
Oct 20
Waning Crescent
Oct 23
New
Oct 30
First Quarter
Nov 6
Full
Nov 14
Last Quarter

Hourly Weather History & Observations

Time (CDT) Temp. Dew Point Humidity Pressure Visibility Wind Dir Wind Speed Gust Speed Precip Events Conditions
12:53 AM 64.9 °F 60.1 °F 84% 30.02 in 10.0 mi East 5.8 mph - N/A   Clear
1:53 AM 64.0 °F 60.1 °F 87% 30.03 in 9.0 mi Calm Calm - N/A   Clear
2:53 AM 63.0 °F 59.0 °F 87% 30.03 in 9.0 mi Calm Calm - N/A   Clear
3:53 AM 62.1 °F 59.0 °F 90% 30.02 in 8.0 mi Calm Calm - N/A   Clear
4:51 AM 62.6 °F 59.0 °F 88% 30.07 in 7.0 mi NNE 4.6 mph - N/A   Mostly Cloudy
4:53 AM 62.1 °F 59.0 °F 90% 30.03 in 7.0 mi NNE 4.6 mph - N/A   Mostly Cloudy
4:58 AM 62.1 °F 59.0 °F 90% 30.07 in 7.0 mi Calm Calm - N/A   Mostly Cloudy
5:09 AM 62.1 °F 60.1 °F 93% 30.07 in 7.0 mi Calm Calm - N/A   Overcast
5:51 AM 64.4 °F 60.8 °F 88% 30.08 in 7.0 mi SE 3.5 mph - N/A   Overcast
5:53 AM 64.0 °F 61.0 °F 90% 30.04 in 7.0 mi SE 3.5 mph - N/A   Mostly Cloudy
6:03 AM 64.0 °F 61.0 °F 90% 30.08 in 6.0 mi SE 3.5 mph - N/A   Mostly Cloudy
6:23 AM 64.0 °F 61.0 °F 90% 30.08 in 6.0 mi Calm Calm - N/A   Scattered Clouds
6:53 AM 63.0 °F 61.0 °F 93% 30.05 in 4.0 mi Calm Calm - N/A   Clear
7:53 AM 62.1 °F 60.1 °F 93% 30.06 in 2.0 mi NNE 3.5 mph - N/A   Clear
8:15 AM 62.1 °F 60.1 °F 93% 30.10 in 3.0 mi NE 3.5 mph - N/A   Partly Cloudy
8:53 AM 64.9 °F 62.1 °F 90% 30.08 in 4.0 mi Calm Calm - N/A   Clear
9:39 AM 66.9 °F 63.0 °F 87% 30.13 in 6.0 mi SSE 3.5 mph - N/A   Partly Cloudy
9:53 AM 69.1 °F 63.0 °F 81% 30.10 in 8.0 mi Variable 4.6 mph - N/A   Partly Cloudy
10:53 AM 71.1 °F 62.1 °F 73% 30.09 in 9.0 mi Calm Calm - N/A   Clear
11:53 AM 73.9 °F 61.0 °F 64% 30.09 in 10.0 mi Variable 3.5 mph - N/A   Mostly Cloudy
12:06 PM 73.9 °F 60.1 °F 62% 30.12 in 10.0 mi Calm Calm - N/A   Partly Cloudy
12:53 PM 75.9 °F 59.0 °F 56% 30.06 in 10.0 mi Calm Calm - N/A   Mostly Cloudy
1:53 PM 77.0 °F 57.9 °F 52% 30.04 in 10.0 mi Variable 3.5 mph - N/A   Mostly Cloudy
2:53 PM 81.0 °F - N/A% 30.01 in 10.0 mi ENE 6.9 mph - N/A   Mostly Cloudy
3:53 PM 78.1 °F - N/A% 30.00 in 10.0 mi East 6.9 mph - N/A   Mostly Cloudy
4:53 PM 79.0 °F - N/A% 29.99 in 10.0 mi ESE 8.1 mph - N/A   Mostly Cloudy
5:53 PM 78.1 °F 55.0 °F 45% 29.99 in 10.0 mi ESE 8.1 mph - N/A   Clear
6:53 PM 73.9 °F 55.9 °F 53% 30.00 in 10.0 mi ESE 3.5 mph - N/A   Clear
7:53 PM 71.1 °F 57.0 °F 61% 30.02 in 10.0 mi Calm Calm - N/A   Clear
8:53 PM 69.1 °F 55.9 °F 63% 30.03 in 10.0 mi Calm Calm - N/A   Clear
9:53 PM 66.9 °F 55.9 °F 68% 30.04 in 10.0 mi ESE 3.5 mph - N/A   Clear
10:53 PM 66.0 °F 57.0 °F 73% 30.05 in 10.0 mi Calm Calm - N/A   Clear
11:53 PM 64.9 °F 57.0 °F 75% 30.04 in 10.0 mi Calm Calm - N/A   Clear